When you browse on this site, cookies collect data to enhance your experience and personalize the content and advertising you see.
Visit our Privacy Policy to learn more. By continuing to use the site, you agree to this use of cookies and data.
  • In Hungary
  • List of Countries
  • For 7 days
  • Water Temperature
  • Weather Map
  • News
  • Weather Widgets
  • user-avatar
    Login

    Hourly Weather Dromore

    Today, 26 May, Tuesday

    Time Temperature Precipitation Wind Pressure Humidity
    00:00 +9°C° 0 mm 2 mps 764 mmHg 98%
    01:00 +9°C° 0 mm 2 mps 764 mmHg 97%
    02:00 +9°C° 0 mm 2 mps 765 mmHg 97%
    03:00 +10°C° 0 mm 2 mps 765 mmHg 97%
    04:00 +10°C° 0 mm 2 mps 765 mmHg 96%
    05:00 +10°C° 0 mm 2 mps 765 mmHg 94%
    06:00 +11°C° 0 mm 1 mps 766 mmHg 93%
    07:00 +12°C° 0 mm 2 mps 766 mmHg 85%
    08:00 +13°C° 0 mm 2 mps 766 mmHg 77%
    09:00 +14°C° 0 mm 2 mps 767 mmHg 69%
    10:00 +15°C° 0 mm 2 mps 767 mmHg 66%
    11:00 +16°C° 0 mm 2 mps 767 mmHg 63%
    12:00 +16°C° 0 mm 2 mps 767 mmHg 60%
    13:00 +17°C° 0 mm 2 mps 767 mmHg 60%
    14:00 +17°C° 0 mm 2 mps 768 mmHg 60%
    15:00 +18°C° 0 mm 1 mps 768 mmHg 60%
    16:00 +16°C° 0 mm 2 mps 768 mmHg 66%
    17:00 +15°C° 0 mm 2 mps 767 mmHg 72%
    18:00 +15°C° 0 mm 2 mps 767 mmHg 78%
    19:00 +13°C° 0 mm 2 mps 768 mmHg 82%
    20:00 +10°C° 0 mm 2 mps 768 mmHg 87%
    21:00 +9°C° 0 mm 2 mps 768 mmHg 92%
    22:00 +9°C° 0 mm 1 mps 768 mmHg 92%
    23:00 +8°C° 0 mm 1 mps 768 mmHg 92%

    Tomorrow, 27 May, Wednesday

    Time Temperature Precipitation Wind Pressure Humidity
    00:00 +8°C° 0 mm 1 mps 768 mmHg 92%
    01:00 +8°C° 0 mm 1 mps 768 mmHg 91%
    02:00 +7°C° 0 mm 1 mps 767 mmHg 91%
    03:00 +7°C° 0 mm 1 mps 767 mmHg 91%
    04:00 +8°C° 0 mm 1 mps 767 mmHg 89%
    05:00 +9°C° 0 mm 1 mps 767 mmHg 87%
    06:00 +10°C° 0 mm 1 mps 767 mmHg 86%
    07:00 +11°C° 0 mm 1 mps 767 mmHg 84%
    08:00 +11°C° 0 mm 1 mps 768 mmHg 83%
    09:00 +12°C° 0 mm 1 mps 768 mmHg 82%
    10:00 +12°C° 0 mm 1 mps 768 mmHg 83%
    11:00 +12°C° 0 mm 2 mps 767 mmHg 84%
    12:00 +12°C° 0 mm 2 mps 767 mmHg 85%
    13:00 +14°C° 0 mm 2 mps 767 mmHg 82%
    14:00 +15°C° 0 mm 2 mps 767 mmHg 78%
    15:00 +17°C° 0 mm 2 mps 767 mmHg 75%
    16:00 +16°C° 0 mm 2 mps 767 mmHg 77%
    17:00 +16°C° 0 mm 2 mps 766 mmHg 80%
    18:00 +15°C° 0 mm 2 mps 766 mmHg 82%
    19:00 +14°C° 0 mm 2 mps 766 mmHg 84%
    20:00 +13°C° 0 mm 2 mps 766 mmHg 87%
    21:00 +11°C° 0 mm 1 mps 766 mmHg 90%
    22:00 +11°C° 0 mm 1 mps 766 mmHg 90%
    23:00 +11°C° 0 mm 1 mps 766 mmHg 89%

    Day after tomorrow, 28 May, Thursday

    Time Temperature Precipitation Wind Pressure Humidity
    00:00 +11°C° 0 mm 1 mps 766 mmHg 89%
    01:00 +11°C° 0 mm 1 mps 766 mmHg 89%
    02:00 +11°C° 0 mm 1 mps 765 mmHg 89%
    03:00 +11°C° 0 mm 1 mps 765 mmHg 89%
    04:00 +11°C° 0 mm 1 mps 765 mmHg 88%
    05:00 +12°C° 0 mm 1 mps 765 mmHg 87%
    06:00 +13°C° 0 mm 1 mps 765 mmHg 86%
    07:00 +14°C° 0 mm 1 mps 765 mmHg 83%
    08:00 +16°C° 0 mm 2 mps 765 mmHg 80%
    09:00 +17°C° 0 mm 2 mps 764 mmHg 77%
    10:00 +17°C° 0 mm 2 mps 764 mmHg 75%
    11:00 +18°C° 0 mm 3 mps 764 mmHg 74%
    12:00 +19°C° 0 mm 3 mps 764 mmHg 73%
    13:00 +19°C° 0 mm 3 mps 763 mmHg 72%
    14:00 +19°C° 0 mm 3 mps 763 mmHg 71%
    15:00 +19°C° 0 mm 3 mps 762 mmHg 71%
    16:00 +19°C° 0 mm 3 mps 762 mmHg 73%
    17:00 +18°C° 0 mm 3 mps 762 mmHg 75%
    18:00 +17°C° 0 mm 3 mps 761 mmHg 77%
    19:00 +16°C° 0 mm 3 mps 761 mmHg 80%
    20:00 +14°C° 0 mm 2 mps 761 mmHg 82%
    21:00 +13°C° 0 mm 2 mps 761 mmHg 85%
    22:00 +13°C° 0 mm 2 mps 761 mmHg 85%
    23:00 +13°C° 0 mm 2 mps 760 mmHg 84%

    29 May, Friday

    Time Temperature Precipitation Wind Pressure Humidity
    00:00 +12°C° 0 mm 2 mps 760 mmHg 84%
    01:00 +12°C° 0 mm 2 mps 760 mmHg 87%
    02:00 +12°C° 0 mm 2 mps 760 mmHg 90%
    03:00 +12°C° 0 mm 2 mps 759 mmHg 93%
    04:00 +12°C° 0 mm 3 mps 759 mmHg 92%
    05:00 +12°C° 0 mm 3 mps 759 mmHg 91%
    06:00 +13°C° 0 mm 4 mps 759 mmHg 90%
    07:00 +14°C° 0 mm 4 mps 759 mmHg 83%
    08:00 +15°C° 0 mm 5 mps 759 mmHg 75%
    09:00 +15°C° 0 mm 5 mps 758 mmHg 68%
    10:00 +16°C° 0 mm 5 mps 758 mmHg 67%
    11:00 +16°C° 0 mm 6 mps 758 mmHg 66%
    12:00 +17°C° 0 mm 6 mps 758 mmHg 65%
    13:00 +17°C° 0 mm 6 mps 758 mmHg 65%
    14:00 +17°C° 0 mm 6 mps 757 mmHg 65%
    15:00 +17°C° 0 mm 6 mps 757 mmHg 66%
    16:00 +16°C° 0 mm 5 mps 757 mmHg 68%
    17:00 +16°C° 0 mm 5 mps 757 mmHg 70%
    18:00 +16°C° 0 mm 5 mps 756 mmHg 73%
    19:00 +14°C° 0 mm 4 mps 756 mmHg 77%
    20:00 +13°C° 0 mm 4 mps 756 mmHg 82%
    21:00 +12°C° 0 mm 3 mps 756 mmHg 86%
    22:00 +12°C° 0 mm 3 mps 756 mmHg 87%
    23:00 +11°C° 0 mm 3 mps 756 mmHg 89%

    30 May, Saturday

    Time Temperature Precipitation Wind Pressure Humidity
    00:00 +11°C° 0 mm 3 mps 756 mmHg 90%
    01:00 +11°C° 0 mm 3 mps 756 mmHg 90%
    02:00 +11°C° 0 mm 3 mps 756 mmHg 89%
    03:00 +10°C° 0 mm 3 mps 756 mmHg 89%
    04:00 +11°C° 0 mm 3 mps 756 mmHg 87%
    05:00 +11°C° 0 mm 3 mps 757 mmHg 85%
    06:00 +12°C° 0 mm 3 mps 757 mmHg 83%
    07:00 +13°C° 0 mm 3 mps 757 mmHg 79%
    08:00 +14°C° 0 mm 4 mps 757 mmHg 76%
    09:00 +15°C° 0 mm 4 mps 757 mmHg 72%
    10:00 +17°C° 0 mm 4 mps 757 mmHg 72%
    11:00 +18°C° 0 mm 4 mps 757 mmHg 71%
    12:00 +19°C° 0 mm 5 mps 757 mmHg 70%
    13:00 +19°C° 0 mm 5 mps 757 mmHg 70%
    14:00 +19°C° 0 mm 5 mps 757 mmHg 69%
    15:00 +19°C° 0 mm 5 mps 756 mmHg 69%
    16:00 +18°C° 0 mm 4 mps 756 mmHg 71%
    17:00 +18°C° 0 mm 4 mps 756 mmHg 73%
    18:00 +17°C° 0 mm 3 mps 756 mmHg 75%
    19:00 +16°C° 0 mm 3 mps 756 mmHg 79%
    20:00 +13°C° 0 mm 3 mps 756 mmHg 84%
    21:00 +13°C° 0 mm 2 mps 756 mmHg 88%
    22:00 +12°C° 0 mm 2 mps 756 mmHg 89%
    23:00 +12°C° 0 mm 2 mps 756 mmHg 89%

    31 May, Sunday

    Time Temperature Precipitation Wind Pressure Humidity
    00:00 +12°C° 0 mm 2 mps 756 mmHg 89%
    01:00 +12°C° 0 mm 2 mps 756 mmHg 89%
    02:00 +12°C° 0 mm 2 mps 756 mmHg 90%
    03:00 +12°C° 0 mm 1 mps 756 mmHg 90%
    04:00 +12°C° 0 mm 1 mps 756 mmHg 88%
    05:00 +13°C° 0 mm 1 mps 756 mmHg 87%
    06:00 +14°C° 0 mm 1 mps 756 mmHg 85%
    07:00 +15°C° 0 mm 1 mps 756 mmHg 82%
    08:00 +16°C° 0 mm 1 mps 756 mmHg 78%
    09:00 +19°C° 0 mm 1 mps 756 mmHg 75%
    10:00 +19°C° 0 mm 1 mps 756 mmHg 74%
    11:00 +19°C° 0 mm 1 mps 756 mmHg 74%
    12:00 +19°C° 0 mm 2 mps 756 mmHg 73%
    13:00 +19°C° 0.1 mm 2 mps 756 mmHg 75%
    14:00 +18°C° 0.1 mm 2 mps 756 mmHg 78%
    15:00 +18°C° 0.1 mm 2 mps 755 mmHg 80%
    16:00 +18°C° 0.1 mm 2 mps 755 mmHg 81%
    17:00 +18°C° 0.1 mm 2 mps 755 mmHg 82%
    18:00 +18°C° 0.1 mm 2 mps 754 mmHg 83%
    19:00 +16°C° 0.1 mm 2 mps 754 mmHg 85%
    20:00 +15°C° 0.1 mm 2 mps 754 mmHg 87%
    21:00 +14°C° 0.1 mm 2 mps 754 mmHg 90%
    22:00 +14°C° 0 mm 2 mps 754 mmHg 90%
    23:00 +13°C° 0 mm 2 mps 754 mmHg 91%
    Show more